Simultaneous Nadir Overpasses (SNOs) Predictions

Prediction of SNOs between GOES-17 and NPP Satellite Orbit:

Table of predicted SNOs for the next 14.0 days since TLE Epoch: 8/24/2024
Index Date Time (GOES-17) GOES-17 Lat,Lon NPP Lat,Lon Distance(km) Time Diff (sec)
1 08/26/2024 08:27:05 -0.01,-104.71 0.12,-105.22 59.29 80
2 08/27/2024 08:05:41 -0.01,-104.70 -0.93,-100.70 457.12 80
3 08/28/2024 20:27:36 0.01,-104.72 -0.28,-105.99 145.26 80
4 08/29/2024 20:11:30 0.01,-104.73 0.72,-101.46 371.62 80
5 08/31/2024 08:33:18 -0.01,-104.71 0.41,-106.73 229.74 80
6 09/01/2024 08:11:52 -0.01,-104.72 -0.59,-102.20 287.21 80
7 09/02/2024 20:33:48 0.01,-104.74 -0.60,-107.50 314.65 80
8 09/03/2024 20:17:42 0.01,-104.74 0.42,-102.97 202.88 80
9 09/05/2024 08:39:28 -0.01,-104.74 0.76,-108.23 397.19 80
10 09/06/2024 08:18:03 -0.01,-104.75 -0.26,-103.70 120.05 80
